Regional Weather Roundup
Issued by NWS Sterling, VA

Home | Current Version | Previous Version | Graphics & Text | Print | Product List | Glossary On
Versions: 1 2 3 4 5 6 7 8 9 10 11 12 13 14 15 16 17 18 19 20 21 22 23 24 25 26 27 28 29 30 31 32 33 34 35 36 37 38 39 40 41 42 43 44 45 46 47 48 49 50
000
ASUS41 KLWX 280010
RWRLWX

REGIONAL WEATHER ROUNDUP
NATIONAL WEATHER SERVICE BALTIMORE MD/WASHINGTON DC
700 PM EST FRI FEB 27 2015

Note: "FAIR" indicates few or no clouds below 12,000 feet
with no significant weather and/or obstructions to visibility.
 TC=TEMPERATURE CELSIUS

 * =Non NWS site. Station does not report precipitation (e.g. rain,
    snow, etc.), thunder, or fog.

DCZ001-MDZ009-015-VAZ040>042-051-053>054-280100-
WASHINGTON METRO

CITY           SKY/WX    TMP DP  RH WIND       PRES   REMARKS
WASHINGTON NAT CLEAR     31  10  41 N8        30.55R WCI  23
DULLES         PTCLDY    27   7  42 NW5       30.54R
ANDREWS AFB    CLEAR     23  10  58 N6        30.52R
FT BELVOIR     CLEAR     28   9  43 N1        30.55R
QUANTICO       CLEAR     30  11  45 NE7       30.56R
LEESBURG*      CLEAR     28  12  50 NW13      30.54R WCI  18
MANASSAS*      CLEAR     28  12  50 N10       30.55R WCI  19
GAITHERSBURG*  CLEAR     25   7  46 CALM      30.56R

$$

MDZ006>007-011-014-280100-
BALTIMORE METRO

CITY           SKY/WX    TMP DP  RH WIND       PRES   REMARKS
BWI AIRPORT    CLEAR     26   7  44 VRB5      30.53R
MD SCIENCE CTR   N/A     28   8  43 MISG      30.54R
MARTIN STATE   CLEAR     27  12  54 CALM      30.56R
ANNAPOLIS      CLEAR     27  11  51 NW3       30.54R
FORT MEADE*    CLEAR     27  10  50 CALM      30.56R

$$

MDZ012-015-019>023-280100-
MARYLAND EASTERN SHORE

CITY           SKY/WX    TMP DP  RH WIND       PRES   REMARKS
OCEAN CITY     CLEAR     24  18  77 N6        30.53R
SALISBURY      CLEAR     28  16  60 NW5       30.53R
BAY BRIDGE AP*   N/A     27  14  59 N5        30.55R
CAMBRIDGE*     CLEAR     32  14  47 N6        30.54R

$$

MDZ017>025-280100-
SOUTHERN MARYLAND

CITY           SKY/WX    TMP DP  RH WIND       PRES   REMARKS
PATUXENT RIVER PTCLDY    27  15  61 NE6       30.54R
ST INIGOES     CLEAR     28  15  58 N3        30.53R
LEONARDTOWN*   CLEAR     28  19  69 CALM      30.55R

$$

MDZ003>005-280100-
NORTH CENTRAL MARYLAND

CITY           SKY/WX    TMP DP  RH WIND       PRES   REMARKS
FREDERICK*     CLEAR     28   1  31 N12       30.57R WCI  18
HAGERSTOWN APT CLEAR     22   3  44 NW12      30.54R WCI  10
WESTMINSTER*   PTCLDY    25   7  46 NW7       30.50R

$$

MDZ501>502-280100-
WESTERN MARYLAND

CITY           SKY/WX    TMP DP  RH WIND       PRES   REMARKS
OAKLAND*       MOCLDY    10  -6  48 NW3       30.37R
CUMBERLAND*    CLEAR     23   1  39 W5        30.60R

$$

VAZ025>031-280100-
SHENANDOAH VALLEY

CITY           SKY/WX    TMP DP  RH WIND       PRES   REMARKS
WINCHESTER*    CLEAR     27   1  33 NW13G20   30.53R WCI  16
FRONT ROYAL*   FAIR      27   7  43 E5        30.51R
LURAY*         FAIR      30  10  43 N5        30.49R
NEW MARKET*    FAIR      25   6  45 N8        30.50R WCI  16
STAUNTON*      CLEAR     28  11  49 NE9       30.48R WCI  19
WAYNESBORO*    FAIR      28  11  50 NW3       30.44R

$$

WVZ021-048>050-054>055-280100-
EASTERN WEST VIRGINIA PANHANDLE

CITY           SKY/WX    TMP DP  RH WIND       PRES   REMARKS
MARTINSBURG    FAIR      25   3  38 NW14      30.54R WCI  13
PETERSBURG*    NOT AVBL

$$

VAZ036>039-050-280100-
CENTRAL FOOTHILLS

CITY           SKY/WX    TMP DP  RH WIND       PRES   REMARKS
CHARLOTTESVILL CLEAR     30  13  49 NE9       30.48R WCI  22
CULPEPER*      CLEAR     28  10  47 E3        30.53
ORANGE*        PTCLDY    28  16  59 CALM      30.53R
GORDONSVILLE*  FAIR      28  12  51 E3        30.50R
WARRENTON*     FAIR      27  17  67 CALM      30.53R

$$

VAZ055>057-280100-
NORTH AND CENTRAL PIEDMONT

CITY           SKY/WX    TMP DP  RH WIND       PRES   REMARKS
FREDERICKSBRG* MOCLDY    31  13  46 N3        30.54R
STAFFORD*      CLEAR     28  10  46 N3        30.58R

$$

NCZ024-NYZ072-PAZ021-071-VAZ022-071-280100-
OTHER REGIONAL OBSERVATIONS

CITY           SKY/WX    TMP DP  RH WIND       PRES   REMARKS
NEW YORK CITY  CLEAR     27   2  34 NW8       30.49R WCI  19
PHILADELPHIA   CLEAR     27   4  37 NW10      30.54R WCI  17
PITTSBURGH     PTCLDY    13  -2  51 NW6       30.55R
ROANOKE        CLEAR     28  10  46 N8        30.49R WCI  20
RICHMOND       PTCLDY    32  18  56 NE5       30.51R
RALEIGH        PTCLDY    37  21  52 NE5       30.46R

$$

ANZ530>537-280100-
MARINE OBSERVATIONS

STATION/POSITION TIME  TEMP    WIND        PRES
                       AIR SEA DIR/SP/G
                 (UTC) (F)     (DEG/KT/KT) (MB)
THOMAS PT LIGHT  0000   29 32  350/ 10/ 11 1035.3R
BALT KEY BRIDGE  2300   29     300/ 12/ 14 1033.1R
COVE POINT       2300   28      40/  7/  9 1033.1R
LEWISETTA        2300   29 32              1032.9R
SOLOMONS ISLAND  2300      33                N/A

$$



USA.gov is the U.S. government's official web portal to all federal, state and local government web resources and services.